Location: Unnamed
(47.6264°N, 122.3366°W)
Time: 21:51:55
(UTC-07:00)

X-37B - Visible Passes

Search period start: 21 June 2021 00:00
Search period end: 01 July 2021 00:00
Orbit: 386 x 389 km, 45.0° (Epoch: 10 June)

Date Brightness Start Highest point End Pass type
(mag) Time Alt. Az. Time Alt. Az. Time Alt. Az.
21 Jun 2.8 01:47:09 16° ESE 01:47:09 16° ESE 01:47:52 10° E visible
21 Jun 1.2 03:19:29 20° WSW 03:21:09 35° SSW 03:24:05 10° SE visible
22 Jun 2.6 02:25:04 17° ESE 02:25:04 17° ESE 02:25:57 10° ESE visible
22 Jun 2.1 03:57:29 13° WSW 03:59:05 17° SSW 04:01:17 10° SSE visible
22 Jun 2.4 22:10:18 10° S 22:12:04 14° SSE 22:13:41 11° ESE visible
22 Jun 2.6 23:45:11 10° WSW 23:46:08 17° SW 23:46:08 17° SW visible
23 Jun 1.4 22:47:06 10° SW 22:49:56 30° SSE 22:51:55 16° ESE visible
24 Jun 2.5 00:23:11 10° WSW 00:24:16 19° WSW 00:24:16 19° WSW visible
24 Jun 1.9 21:49:15 10° SSW 21:51:44 21° SSE 21:54:14 10° ESE visible
24 Jun 0.7 23:24:55 10° WSW 23:28:00 48° S 23:29:00 33° ESE visible
25 Jun 1.0 22:26:42 10° WSW 22:29:43 40° SSE 22:32:44 10° E visible
26 Jun 1.1 00:03:02 10° W 00:05:33 43° SW 00:05:33 43° SW visible
26 Jun 0.7 23:04:42 10° WSW 23:07:50 53° S 23:09:38 22° ESE visible
27 Jun 3.0 00:41:17 10° W 00:41:54 14° WSW 00:41:54 14° WSW visible
27 Jun 0.8 22:06:26 10° WSW 22:09:32 49° S 22:12:37 10° E visible
27 Jun 0.9 23:42:53 10° W 23:45:52 44° SSW 23:45:52 44° SSW visible
28 Jun 0.8 22:44:33 10° W 22:47:40 51° S 22:49:47 18° ESE visible
29 Jun 2.9 00:21:17 10° W 00:22:03 15° WSW 00:22:03 15° WSW visible
29 Jun 1.3 23:22:48 10° W 23:25:45 34° SSW 23:25:57 34° S visible
30 Jun 1.0 22:24:26 10° W 22:27:29 44° S 22:29:51 15° ESE visible
